Airfield :
LOGIN :

Register | Disclaimer

   EN    FR    IT 

 










Legend :    VFR   Marginal VFR   IFR   Intensive IFR   Very Intensive IFR
Visi :
Ceiling :
>= 8 km
>= 3000ft
5 to 8 km
1000 to 3000 ft
1500m to 5 km
500 to 1000 ft
800 to 1500m
200 to 500 ft
< 800m
< 200 ft
Symbols :   Thunderstorms  Fog  Heavy snow  Heavy precipitations  Wind > 20 kt
SIGMETs :     Misc.  Thunderstorms  Icing  Turbulence  Mountain Waves  Volcanic Ashes







- Airport Elevation : 129 ft
- IATA code : ZCN


ETHC - Celle

CURRENT METAR :
  • 141820Z 27007KT 9999 FEW030 BKN040 BKN060 20/13 Q1013 BLU

EXPIRED METARs :
  • 141720Z 25004KT 9999 FEW028 SCT060 21/14 Q1012 BLU+
  • 141620Z 26007G19KT 9999 FEW025 BKN041 21/15 Q1012 BLU FCST CANCEL

TAF AMD TAF ETHC
Valid from the 14 at 14:00 until the 14 at 23:00 UTC


141607Z 1414/1423 25010KT 9999 NSW SCT025 SCT070
TEMPO 1414/1418 27015G25KT 4000 SHRA FEW010 BKN020CB CANCEL 1630
No reported NOTAMs for that airfield.



MET'MAP, your aeronautical weather chart ! - Copyright ORBIFLY December 2007 - Disclaimer

ORBIFLY MET'MAP TEAM :

Programming & Development : Alexandra Zaïnal
Concept & Development : Baudouin d'Aumeries
Co-Development & Prog : Marc-Olivier Méhu
Technical & hardware support : Manuel Goepfert

Contact : metmap@orbifly.com




SOURCES & CREDITS :

   NOAA